EW2422 Weather Reports


Display with metric or nautical units.
time (UTC)temp
F
wind
direction
speed
MPH
gust
MPH
rain 1hr
in
rain 24hr
in
rain mn
in
humidity
%
barometer
mb
20210727011523 75 25 2.0 6.0 0.00 0.00 0.00 48 1008.4
20210727011050 75 317 1.0 4.0 0.00 0.00 0.00 48 1008.4
20210727010525 75 256 0.0 6.0 0.00 0.00 0.00 48 1008.3
20210727010024 75 302 2.0 6.0 0.00 0.00 0.00 47 1008.4
20210727005540 76 131 2.0 6.0 0.00 0.00 0.00 47 1008.4
20210727005036 76 266 2.0 6.0 0.00 0.00 0.00 46 1008.4
20210727004532 76 59 1.0 5.0 0.00 0.00 0.00 46 1008.3
20210727004027 76 75 1.0 8.0 0.00 0.00 0.00 47 1008.4
20210727003524 76 224 2.0 8.0 0.00 0.00 0.00 47 1008.3
20210727003039 76 252 2.0 8.0 0.00 0.00 0.00 47 1008.5
20210727002533 77 145 2.0 6.0 0.00 0.00 0.00 47 1008.5
20210727002029 78 79 1.0 5.0 0.00 0.00 0.00 46 1008.4
20210727001524 79 86 2.0 5.0 0.00 0.00 0.00 45 1008.4
20210727001051 78 34 1.0 5.0 0.00 0.00 0.00 46 1008.4
20210727000528 79 60 2.0 6.0 0.00 0.00 0.00 45 1008.4
20210727000022 78 330 2.0 6.0 0.00 0.00 0.00 46 1008.4
20210726235538 78 293 1.0 7.0 0.00 0.00 0.00 46 1008.4
20210726235033 78 235 2.0 7.0 0.00 0.00 0.00 46 1008.4
20210726234531 78 228 1.0 7.0 0.00 0.00 0.00 46 1008.3
20210726234027 79 243 3.0 7.0 0.00 0.00 0.00 45 1008.3
20210726233525 79 98 1.0 6.0 0.00 0.00 0.00 45 1008.3
20210726233039 79 232 2.0 6.0 0.00 0.00 0.00 45 1008.3
20210726232535 79 105 2.0 6.0 0.00 0.00 0.00 45 1008.2
20210726232031 79 175 3.0 7.0 0.00 0.00 0.00 45 1008.2
20210726231526 78 218 3.0 11.0 0.00 0.00 0.00 46 1008.1
20210726231059 78 172 2.0 11.0 0.00 0.00 0.00 47 1008.2
20210726230536 77 217 4.0 10.0 0.00 0.00 0.00 48 1008.1
20210726230030 78 144 3.0 12.0 0.00 0.00 0.00 47 1008.1
20210726225525 78 124 3.0 12.0 0.00 0.00 0.00 47 1008.2
20210726225041 78 233 3.0 9.0 0.00 0.00 0.00 47 1008.2
20210726224536 78 172 3.0 9.0 0.00 0.00 0.00 47 1008.0
20210726224028 79 218 2.0 11.0 0.00 0.00 0.00 46 1008.0
20210726223525 78 148 2.0 11.0 0.00 0.00 0.00 47 1008.1
20210726223039 78 271 3.0 7.0 0.00 0.00 0.00 47 1008.1
20210726222535 77 127 2.0 5.0 0.00 0.00 0.00 48 1008.1
20210726222032 76 205 2.0 4.0 0.00 0.00 0.00 49 1008.2
20210726221527 76 146 2.0 7.0 0.00 0.00 0.00 49 1008.2
20210726221054 76 179 2.0 7.0 0.00 0.00 0.00 49 1008.1
20210726220534 76 95 2.0 9.0 0.00 0.00 0.00 48 1008.1
20210726220029 77 207 2.0 9.0 0.00 0.00 0.00 47 1008.1
20210726215524 78 342 2.0 7.0 0.00 0.00 0.00 45 1008.0
20210726215040 79 292 2.0 7.0 0.00 0.00 0.00 44 1008.0
20210726214536 80 250 1.0 5.0 0.00 0.00 0.00 43 1008.1
20210726214032 80 186 2.0 5.0 0.00 0.00 0.00 43 1008.2
20210726213527 79 250 2.0 7.0 0.00 0.00 0.00 42 1008.2
20210726213022 79 156 2.0 8.0 0.00 0.00 0.00 42 1008.1
20210726212539 79 186 2.0 8.0 0.00 0.00 0.00 43 1008.1
20210726212035 79 183 3.0 7.0 0.00 0.00 0.00 43 1008.3
20210726211530 79 359 2.0 7.0 0.00 0.00 0.00 44 1008.4
20210726211057 79 310 2.0 5.0 0.00 0.00 0.00 45 1008.3
20210726210534 78 338 2.0 5.0 0.00 0.00 0.00 45 1008.4
20210726210028 78 228 2.0 5.0 0.00 0.00 0.00 44 1008.3
20210726205524 78 235 2.0 9.0 0.00 0.00 0.00 45 1008.3
20210726205040 78 225 3.0 9.0 0.00 0.00 0.00 43 1008.3
20210726204531 77 255 1.0 10.0 0.00 0.00 0.00 45 1008.3
20210726204032 77 104 2.0 10.0 0.00 0.00 0.00 46 1008.4
20210726203527 78 58 3.0 10.0 0.00 0.00 0.00 45 1008.3
20210726203022 78 58 2.0 7.0 0.00 0.00 0.00 45 1008.2
20210726202538 78 319 3.0 6.0 0.00 0.00 0.00 45 1008.4
20210726202034 78 9 3.0 5.0 0.00 0.00 0.00 43 1008.3
20210726201530 78 179 1.0 5.0 0.00 0.00 0.00 43 1008.3
20210726201057 78 252 2.0 5.0 0.00 0.00 0.00 43 1008.3
20210726200533 79 68 1.0 4.0 0.00 0.00 0.00 42 1008.3
20210726200028 79 46 1.0 7.0 0.00 0.00 0.00 41 1008.3
20210726195523 79 242 3.0 7.0 0.00 0.00 0.00 41 1008.3
20210726195039 79 256 1.0 6.0 0.00 0.00 0.00 41 1008.3
20210726194535 79 194 1.0 5.0 0.00 0.00 0.00 41 1008.2
20210726194030 79 78 2.0 6.0 0.00 0.00 0.00 41 1008.2
20210726193527 79 191 2.0 6.0 0.00 0.00 0.00 40 1008.3
20210726193022 79 106 1.0 6.0 0.00 0.00 0.00 40 1008.4
20210726192537 79 52 2.0 6.0 0.00 0.00 0.00 40 1008.4
20210726192032 78 173 2.0 6.0 0.00 0.00 0.00 40 1008.4
20210726191532 78 224 3.0 6.0 0.00 0.00 0.00 40 1008.5
20210726191056 78 69 2.0 6.0 0.00 0.00 0.00 40 1008.4
20210726190532 78 309 2.0 6.0 0.00 0.00 0.00 41 1008.3
20210726190027 78 177 2.0 10.0 0.00 0.00 0.00 40 1008.4
20210726185542 78 161 2.0 10.0 0.00 0.00 0.00 40 1008.3
20210726185038 79 62 3.0 7.0 0.00 0.00 0.00 39 1008.4
20210726184534 80 344 2.0 5.0 0.00 0.00 0.00 38 1008.4
20210726184031 80 313 1.0 5.0 0.00 0.00 0.00 37 1008.4
20210726183529 80 90 1.0 5.0 0.00 0.00 0.00 36 1008.3
20210726183024 80 119 1.0 4.0 0.00 0.00 0.00 36 1008.3
20210726182541 80 136 2.0 6.0 0.00 0.00 0.00 37 1008.3
20210726182036 80 275 2.0 6.0 0.00 0.00 0.00 37 1008.3
20210726181528 79 160 1.0 5.0 0.00 0.00 0.00 37 1008.3
20210726181100 80 343 1.0 5.0 0.00 0.00 0.00 37 1008.4
20210726180533 80 252 2.0 6.0 0.00 0.00 0.00 37 1008.3
20210726180024 80 32 2.0 7.0 0.00 0.00 0.00 37 1008.3
20210726175539 80 312 1.0 6.0 0.00 0.00 0.00 37 1008.3
20210726175035 80 264 3.0 7.0 0.00 0.00 0.00 37 1008.2
20210726174534 80 102 1.0 7.0 0.00 0.00 0.00 36 1008.3
20210726174027 80 177 2.0 6.0 0.00 0.00 0.00 37 1008.2
20210726173525 80 293 2.0 6.0 0.00 0.00 0.00 36 1008.2
20210726173039 80 140 1.0 6.0 0.00 0.00 0.00 38 1008.3
20210726172536 79 12 1.0 6.0 0.00 0.00 0.00 38 1008.3
20210726172031 79 132 2.0 6.0 0.00 0.00 0.00 38 1008.2
20210726171527 78 266 1.0 9.0 0.00 0.00 0.00 40 1008.3
20210726171052 77 230 3.0 9.0 0.00 0.00 0.00 40 1008.3
20210726170530 77 172 2.0 7.0 0.00 0.00 0.00 41 1008.2
20210726170025 76 217 2.0 7.0 0.00 0.00 0.00 42 1008.2
20210726165541 76 79 1.0 5.0 0.00 0.00 0.00 43 1008.2
20210726165036 75 186 2.0 5.0 0.00 0.00 0.00 44 1008.3
20210726164532 75 158 2.0 5.0 0.00 0.00 0.00 45 1008.3
20210726164028 74 91 1.0 5.0 0.00 0.00 0.00 46 1008.3
20210726163524 73 329 1.0 5.0 0.00 0.00 0.00 48 1008.3
20210726163040 72 46 2.0 5.0 0.00 0.00 0.00 49 1008.2
20210726162536 71 153 2.0 6.0 0.00 0.00 0.00 50 1008.3
20210726162035 70 358 2.0 6.0 0.00 0.00 0.00 51 1008.3
20210726161528 70 58 2.0 6.0 0.00 0.00 0.00 52 1008.5
20210726161055 69 56 1.0 7.0 0.00 0.00 0.00 54 1008.5
20210726160530 69 54 4.0 7.0 0.00 0.00 0.00 54 1008.4
20210726160025 69 332 2.0 5.0 0.00 0.00 0.00 53 1008.5
20210726155542 69 58 2.0 7.0 0.00 0.00 0.00 54 1008.4
20210726155038 69 74 3.0 7.0 0.00 0.00 0.00 54 1008.4
20210726154535 69 243 1.0 3.0 0.00 0.00 0.00 55 1008.4
20210726154030 68 139 0.0 3.0 0.00 0.00 0.00 56 1008.4
20210726153525 67 16 0.0 3.0 0.00 0.00 0.00 58 1008.4
20210726153040 67 111 1.0 2.0 0.00 0.00 0.00 58 1008.5
20210726152533 66 236 0.0 2.0 0.00 0.00 0.00 61 1008.4
20210726152030 65 216 1.0 5.0 0.00 0.00 0.00 63 1008.3
20210726151525 64 142 1.0 6.0 0.00 0.00 0.00 64 1008.3
20210726151051 64 304 3.0 6.0 0.00 0.00 0.00 64 1008.3
20210726150528 64 112 1.0 3.0 0.00 0.00 0.00 64 1008.3
20210726150022 64 214 0.0 4.0 0.00 0.00 0.00 64 1008.4
20210726145539 64 263 1.0 4.0 0.00 0.00 0.00 64 1008.5
20210726145035 64 280 1.0 5.0 0.00 0.00 0.00 64 1008.4
20210726144534 63 246 1.0 5.0 0.00 0.00 0.00 64 1008.4
20210726144029 63 127 0.0 6.0 0.00 0.00 0.00 64 1008.3
20210726143526 63 23 3.0 6.0 0.00 0.00 0.00 63 1008.4
20210726143038 64 220 0.0 2.0 0.00 0.00 0.00 62 1008.4
20210726142532 63 235 1.0 2.0 0.00 0.00 0.00 63 1008.3
20210726142029 63 219 0.0 3.0 0.00 0.00 0.00 63 1008.2
20210726141524 63 219 1.0 4.0 0.00 0.00 0.00 63 1008.1
20210726141052 62 213 1.0 4.0 0.00 0.00 0.00 64 1008.0
20210726140529 62 121 1.0 3.0 0.00 0.00 0.00 64 1008.0
20210726140023 62 156 1.0 5.0 0.00 0.00 0.00 64 1007.9
20210726135538 61 80 1.0 5.0 0.00 0.00 0.00 64 1007.9
20210726135034 61 247 0.0 3.0 0.00 0.00 0.00 64 1007.8
20210726134530 62 238 0.0 2.0 0.00 0.00 0.00 64 1007.8
20210726134025 61 139 0.0 4.0 0.00 0.00 0.00 64 1007.8
20210726133543 62 233 0.0 4.0 0.00 0.00 0.00 64 1007.7
20210726133038 61 148 0.0 2.0 0.00 0.00 0.00 64 1007.8
20210726132533 61 40 0.0 2.0 0.00 0.00 0.00 64 1007.7
20210726132029 61 334 0.0 2.0 0.00 0.00 0.00 64 1007.5
20210726131524 61 68 1.0 2.0 0.00 0.00 0.00 65 1007.4
20210726131052 61 84 0.0 1.0 0.00 0.00 0.00 64 1007.4
20210726130527 61 84 0.0 0.0 0.00 0.00 0.00 63 1007.3
20210726130042 61 247 0.0 0.0 0.00 0.00 0.00 62 1007.3
20210726125539 62 247 0.0 1.0 0.00 0.00 0.00 62 1007.3
20210726125034 62 247 0.0 1.0 0.00 0.00 0.00 60 1007.3
20210726124529 62 219 1.0 1.0 0.00 0.00 0.00 60 1007.3
20210726124025 63 68 0.0 1.0 0.00 0.00 0.00 59 1007.2
20210726123542 63 65 0.0 2.0 0.00 0.00 0.00 59 1007.1
20210726123038 64 65 1.0 2.0 0.00 0.00 0.00 58 1007.0
20210726122534 64 56 0.0 2.0 0.00 0.00 0.00 56 1007.0
20210726122029 64 86 1.0 3.0 0.00 0.00 0.00 56 1006.9
20210726121523 65 37 0.0 3.0 0.00 0.00 0.00 54 1007.0
20210726121050 65 55 1.0 2.0 0.00 0.00 0.00 55 1007.0
20210726120526 65 82 1.0 3.0 0.00 0.00 0.00 54 1006.9
20210726120042 66 94 0.0 3.0 0.00 0.00 0.00 53 1006.8
20210726115538 65 10 1.0 5.0 0.00 0.00 0.00 53 1006.7
20210726115038 66 84 1.0 6.0 0.00 0.00 0.00 53 1006.7
20210726114534 65 58 2.0 6.0 0.00 0.00 0.00 53 1006.7
20210726114029 65 72 2.0 6.0 0.00 0.00 0.00 52 1006.6
20210726113526 66 61 2.0 4.0 0.00 0.00 0.00 52 1006.6
20210726113040 66 72 1.0 4.0 0.00 0.00 0.00 52 1006.7
20210726112535 66 89 2.0 5.0 0.00 0.00 0.00 52 1006.6
20210726112031 66 53 2.0 4.0 0.00 0.00 0.00 51 1006.6
20210726111526 66 153 0.0 6.0 0.00 0.00 0.00 52 1006.5
20210726111054 66 295 2.0 6.0 0.00 0.00 0.00 52 1006.5
20210726110529 66 271 2.0 6.0 0.00 0.00 0.00 52 1006.4
20210726110023 66 59 2.0 6.0 0.00 0.00 0.00 52 1006.6
20210726105539 67 39 2.0 6.0 0.00 0.00 0.00 51 1006.5
20210726105035 67 20 2.0 6.0 0.00 0.00 0.00 51 1006.6
20210726104529 67 65 2.0 6.0 0.00 0.00 0.00 50 1006.6
20210726104027 67 34 0.0 6.0 0.00 0.00 0.00 50 1006.5
20210726103524 67 349 2.0 9.0 0.00 0.00 0.00 50 1006.5
20210726103039 67 20 2.0 9.0 0.00 0.00 0.00 51 1006.4
20210726102537 67 77 1.0 7.0 0.00 0.00 0.00 50 1006.4
20210726102034 67 98 1.0 12.0 0.00 0.00 0.00 50 1006.5
20210726101529 67 63 4.0 12.0 0.00 0.00 0.00 50 1006.5
20210726100536 67 357 2.0 7.0 0.00 0.00 0.00 49 1006.4
20210726100029 67 117 2.0 7.0 0.00 0.00 0.00 49 1006.5
20210726095542 67 11 1.0 7.0 0.00 0.00 0.00 48 1006.5
20210726095039 67 71 3.0 7.0 0.00 0.00 0.00 48 1006.5
20210726094535 67 53 1.0 6.0 0.00 0.00 0.00 49 1006.5
20210726094029 67 94 1.0 4.0 0.00 0.00 0.00 48 1006.6
20210726093525 67 56 2.0 4.0 0.00 0.00 0.00 48 1006.6
20210726093040 67 27 1.0 3.0 0.00 0.00 0.00 48 1006.6
20210726092536 68 75 1.0 3.0 0.00 0.00 0.00 47 1006.7
20210726092033 68 225 0.0 3.0 0.00 0.00 0.00 47 1006.6
20210726091529 68 132 0.0 6.0 0.00 0.00 0.00 46 1006.7
20210726091055 68 92 0.0 6.0 0.00 0.00 0.00 46 1006.7
20210726090533 68 65 1.0 6.0 0.00 0.00 0.00 47 1006.8
20210726090027 68 358 1.0 9.0 0.00 0.00 0.00 47 1006.8
20210726085523 68 41 0.0 9.0 0.00 0.00 0.00 47 1006.7
20210726085023 67 132 1.0 4.0 0.00 0.00 0.00 48 1006.8
20210726084539 67 297 1.0 3.0 0.00 0.00 0.00 48 1006.7
20210726084034 68 104 1.0 3.0 0.00 0.00 0.00 47 1006.7
20210726083533 68 83 1.0 3.0 0.00 0.00 0.00 46 1006.7
20210726083026 68 52 2.0 4.0 0.00 0.00 0.00 46 1006.8
20210726082541 68 76 1.0 4.0 0.00 0.00 0.00 46 1006.8
20210726082036 68 289 1.0 6.0 0.00 0.00 0.00 45 1006.9
20210726081532 69 267 2.0 6.0 0.00 0.00 0.00 45 1006.9
20210726081103 69 78 3.0 5.0 0.00 0.00 0.00 44 1006.9
20210726080539 69 113 2.0 5.0 0.00 0.00 0.00 44 1006.9
20210726080034 69 94 2.0 8.0 0.00 0.00 0.00 44 1006.9
20210726075529 69 105 2.0 8.0 0.00 0.00 0.00 44 1006.9
20210726075023 69 169 0.0 9.0 0.00 0.00 0.00 43 1007.0
20210726074538 70 61 2.0 9.0 0.00 0.00 0.00 42 1007.0
20210726074030 70 14 1.0 5.0 0.00 0.00 0.00 41 1007.0
20210726073526 70 65 2.0 8.0 0.00 0.00 0.00 40 1007.0
20210726073041 70 96 2.0 8.0 0.00 0.00 0.00 39 1007.1
20210726072535 70 117 1.0 6.0 0.00 0.00 0.00 40 1007.1
20210726072036 70 72 2.0 6.0 0.00 0.00 0.00 40 1007.1
20210726071529 70 319 2.0 6.0 0.00 0.00 0.00 41 1007.2
20210726071059 70 99 2.0 11.0 0.00 0.00 0.00 41 1007.2
20210726070531 71 274 4.0 11.0 0.00 0.00 0.00 41 1007.2
20210726070027 71 208 1.0 7.0 0.00 0.00 0.00 42 1007.1
20210726065542 71 44 2.0 6.0 0.00 0.00 0.00 42 1007.1
20210726065039 71 40 2.0 4.0 0.00 0.00 0.00 41 1007.1
20210726064534 72 237 1.0 7.0 0.00 0.00 0.00 39 1007.1
20210726064026 72 80 3.0 7.0 0.00 0.00 0.00 39 1007.2
20210726063541 72 103 3.0 8.0 0.00 0.00 0.00 38 1007.1
20210726063031 72 141 2.0 8.0 0.00 0.00 0.00 38 1007.2
20210726062525 72 264 2.0 8.0 0.00 0.00 0.00 38 1007.0
20210726062042 72 146 2.0 6.0 0.00 0.00 0.00 36 1007.1
20210726061535 72 127 2.0 4.0 0.00 0.00 0.00 38 1007.1
20210726061107 72 126 1.0 5.0 0.00 0.00 0.00 38 1007.3
20210726060538 71 124 1.0 5.0 0.00 0.00 0.00 39 1007.2
20210726060031 71 89 1.0 5.0 0.00 0.00 0.00 41 1007.3
20210726055525 72 80 1.0 4.0 0.00 0.00 0.00 41 1007.4
20210726055025 72 262 1.0 4.0 0.00 0.00 0.00 40 1007.3
20210726054540 71 202 1.0 4.0 0.00 0.00 0.00 41 1007.3
20210726054036 72 90 1.0 4.0 0.00 0.00 0.00 41 1007.2
20210726053532 72 158 0.0 3.0 0.00 0.00 0.00 41 1007.4
20210726053027 72 143 1.0 4.0 0.00 0.00 0.00 41 1007.4
20210726052523 72 231 1.0 3.0 0.00 0.00 0.00 40 1007.3
20210726052040 73 267 1.0 6.0 0.00 0.00 0.00 40 1007.4
20210726051532 73 241 1.0 6.0 0.00 0.00 0.00 39 1007.4
20210726051103 73 64 0.0 6.0 0.00 0.00 0.00 38 1007.4
20210726050525 74 144 2.0 6.0 0.00 0.00 0.00 38 1007.4
20210726050039 74 240 1.0 6.0 0.00 0.00 0.00 37 1007.4
20210726045535 74 221 0.0 3.0 0.00 0.00 0.00 36 1007.3
20210726045033 74 141 0.0 3.0 0.00 0.00 0.00 36 1007.2
20210726044528 74 226 1.0 5.0 0.00 0.00 0.00 35 1007.1
20210726044023 74 240 1.0 5.0 0.00 0.00 0.00 35 1007.1
20210726043540 74 172 0.0 4.0 0.00 0.00 0.00 36 1007.1
20210726043032 75 232 2.0 6.0 0.00 0.00 0.00 36 1007.0
20210726042528 75 190 3.0 6.0 0.00 0.00 0.00 35 1006.9
20210726042027 75 233 2.0 5.0 0.00 0.00 0.00 36 1007.0
20210726041540 75 215 3.0 5.0 0.00 0.00 0.00 34 1007.0
20210726041047 75 217 2.0 5.0 0.00 0.00 0.00 36 1007.0
20210726040524 75 209 1.0 3.0 0.00 0.00 0.00 36 1007.0
20210726040040 76 240 0.0 5.0 0.00 0.00 0.00 36 1007.0
20210726035535 76 240 1.0 3.0 0.00 0.00 0.00 36 1006.8
20210726035030 76 131 0.0 3.0 0.00 0.00 0.00 36 1006.9
20210726034527 77 341 1.0 4.0 0.00 0.00 0.00 36 1006.8
20210726034023 77 87 1.0 4.0 0.00 0.00 0.00 36 1006.8
20210726033541 77 97 0.0 5.0 0.00 0.00 0.00 36 1006.7
20210726033036 77 264 1.0 7.0 0.00 0.00 0.00 36 1006.6
20210726032532 77 309 1.0 7.0 0.00 0.00 0.00 36 1006.6
20210726032028 77 356 1.0 5.0 0.00 0.00 0.00 35 1006.6
20210726031525 78 253 1.0 5.0 0.00 0.00 0.00 35 1006.7
20210726031051 78 4 1.0 3.0 0.00 0.00 0.00 35 1006.6
20210726030528 79 51 1.0 3.0 0.00 0.00 0.00 34 1006.6
20210726030043 79 87 1.0 4.0 0.00 0.00 0.00 34 1006.6
20210726025538 80 12 1.0 4.0 0.00 0.00 0.00 33 1006.5
20210726025037 80 55 0.0 8.0 0.00 0.00 0.00 32 1006.5
20210726024532 80 62 1.0 8.0 0.00 0.00 0.00 32 1006.4
20210726024029 80 64 1.0 9.0 0.00 0.00 0.00 32 1006.4
20210726023527 81 91 3.0 9.0 0.00 0.00 0.00 31 1006.4
20210726023039 81 248 1.0 6.0 0.00 0.00 0.00 31 1006.4
20210726022535 81 198 1.0 3.0 0.00 0.00 0.00 32 1006.4
20210726022030 81 219 1.0 5.0 0.00 0.00 0.00 32 1006.4
20210726021527 82 191 1.0 5.0 0.00 0.00 0.00 33 1006.4
20210726021059 82 219 1.0 9.0 0.00 0.00 0.00 32 1006.3
20210726020535 82 129 3.0 10.0 0.00 0.00 0.00 31 1006.3
20210726020030 83 207 1.0 10.0 0.00 0.00 0.00 30 1006.2
20210726015527 83 165 3.0 10.0 0.00 0.00 0.00 30 1006.2
20210726015022 84 174 3.0 9.0 0.00 0.00 0.00 30 1006.2
20210726014539 84 209 3.0 6.0 0.00 0.00 0.00 29 1006.3
20210726014034 85 214 1.0 7.0 0.00 0.00 0.00 30 1006.3
20210726013529 85 238 1.0 6.0 0.00 0.00 0.00 29 1006.2
20210726013029 86 302 1.0 5.0 0.00 0.00 0.00 29 1006.3
20210726012524 86 53 2.0 5.0 0.00 0.00 0.00 28 1006.3
20210726012042 87 317 3.0 5.0 0.00 0.00 0.00 28 1006.3